This demonstration page uses our WeatherBlox Daily Observations layout. Learn more.

39.29038, -76.61219

Hourly Observations for February 5, 2020

Temp ( °F °C ) Dew Point ( °F °C ) Humidity (%) Winds ( mph kmh ) Pressure ( in mb ) Visibility ( mi km ) Precip ( " mm )
12:54 am 00:54 undefined 53 11.7 48 8.9 83 83 undefined N/A 29.78 1008 N/A 0 0
1:54 am 01:54 undefined 55 12.8 50 10 83 83 undefined N/A 29.78 1008 N/A 0 0
2:54 am 02:54 undefined 53 11.7 49 9.4 86 86 undefined N/A 29.78 1009 N/A 0 0
3:54 am 03:54 undefined 56 13.3 50 10 81 81 undefined N/A 29.8 1009 N/A 0 0
4:54 am 04:54 undefined 49 9.4 43 6.1 80 80 undefined N/A 29.86 1011 N/A 0 0
5:54 am 05:54 undefined 45 7.2 39 3.9 80 80 undefined N/A 29.91 1013 N/A 0 0
6:54 am 06:54 undefined 43 6.1 36 2.2 76 76 undefined N/A 29.96 1015 N/A 0 0
7:54 am 07:54 undefined 42 5.6 36 2.2 79 79 undefined N/A 30.02 1017 N/A 0 0
8:54 am 08:54 undefined 40 4.4 36 2.2 86 86 undefined N/A 30.05 1018 N/A 0 0
9:54 am 09:54 undefined 40 4.4 36 2.2 86 86 undefined N/A 30.06 1018 N/A 0.01 0.254
10:54 am 10:54 undefined 39 3.9 35 1.7 86 86 undefined N/A 30.08 1019 N/A 0.01 0.254
11:54 am 11:54 undefined 39 3.9 31 -0.6 73 73 undefined N/A 30.09 1019 N/A 0 0
12:54 pm 12:54 undefined 40 4.4 33 0.6 77 77 undefined N/A 30.07 1018 N/A 0 0
1:54 pm 13:54 undefined 41 5 34 1.1 76 76 undefined N/A 30.05 1018 N/A 0 0
2:54 pm 14:54 undefined 41 5 32 0 70 70 undefined N/A 30.04 1017 N/A 0 0
3:54 pm 15:54 undefined 42 5.6 33 0.6 71 71 undefined N/A 30.04 1017 N/A 0 0
4:54 pm 16:54 undefined 41 5 32 0 70 70 undefined N/A 30.04 1017 N/A 0 0
5:54 pm 17:54 undefined 41 5 30 -1.1 65 65 undefined N/A 30.04 1017 N/A 0 0
6:54 pm 18:54 undefined 41 5 29 -1.7 62 62 undefined N/A 30.04 1017 N/A 0 0
7:54 pm 19:54 undefined 41 5 31 -0.6 67 67 undefined N/A 30.02 1017 N/A 0 0
8:54 pm 20:54 undefined 39 3.9 34 1.1 82 82 undefined N/A 29.99 1016 N/A 0 0
9:54 pm 21:54 undefined 40 4.4 34 1.1 79 79 undefined N/A 29.97 1015 N/A 0 0
10:54 pm 22:54 undefined 39 3.9 34 1.1 82 82 undefined N/A 29.93 1014 N/A 0.01 0.254
11:54 pm 23:54 undefined 39 3.9 35 1.7 86 86 undefined N/A 29.9 1012 N/A 0.05 1.27

Powered by AerisWeather